Flag for Germany Weather past 2 weeks in Detmold, North Rhine-Westphalia, Germany

Now
66 °F

Partly sunny.


Feels Like: 66 °F
Forecast: 50 / 76 °F
Wind: 3 mph from Southwest

Location: Bad Lippspringe

Current Time: Aug 28, 2015 at 3:43:39 PM

Latest Report: Aug 28, 2015 at 3:00 PM


Visibility: 19 mi

Pressure: 30.08 "Hg

Humidity: 65%

Dew point: 54 °F

Location of DetmoldLocation

Historic Weather in Detmold — Graph

°F

Detmold temperature yesterday

Maximum temperature yesterday: 74 °F (at 12:00 AM)
Minimum temperature yesterday: 57 °F (at 10:00 PM)
Average temperature yesterday: 66 °F

Past Weeks' High & Low Weather Summary

 TemperatureHumidityPressure
High85 °F (Aug 13, 5:00 PM)100% (Aug 14, 10:00 PM)30.27 "Hg (Aug 14, 10:00 PM)
Low51 °F (Aug 19, 7:00 AM)34% (Aug 22, 3:00 PM)29.59 "Hg (Aug 24, 6:00 PM)
Average65 °F75%29.94 "Hg
* Reported Aug 13 2:00 PM — Aug 28 2:00 PM, Detmold, Weather by CustomWeather, © 2015

Note: Actual official high and low records may vary slightly from our data, if they occured in-between our weather recording intervals... More about our weather records

Advertising

Detmold weather history for previous 24 hours

 ConditionsComfort  
Time TempWeatherWind HumidityBarometerVisibility
2:00 PM
Fri, Aug 28
64 °FOvercast.3 mph68%30.08 "Hg22 mi
1:00 PM63 °FOvercast.2 mph73%30.07 "Hg19 mi
12:00 PM63 °FPartly sunny.3 mph75%30.06 "Hg12 mi
11:00 AM59 °FPartly sunny.2 mph82%30.05 "Hg9 mi
10:00 AM57 °FLow clouds.2 mph92%30.04 "Hg6 mi
9:00 AM56 °FLow clouds.3 mph92%30.02 "Hg5 mi
8:00 AM56 °FFog.1 mph93%30.01 "Hg4 mi
7:00 AM55 °FFog.2 mph96%29.99 "Hg2 mi
5:00 AM55 °FFog.2 mph97%29.96 "Hg2 mi
4:00 AM55 °FFog.3 mph97%29.95 "Hg2 mi
3:00 AM55 °FLow clouds.2 mph97%29.94 "Hg2 mi
2:00 AM55 °FLight freezing rain. Low clouds.2 mph97%29.92 "Hg3 mi
1:00 AM55 °FRain. Low clouds.1 mph98%29.91 "Hg1 mi
11:00 PM
Thu, Aug 27
57 °FLight rain. Low clouds.3 mph99%29.89 "Hg1 mi
10:00 PM57 °FLight rain. Low clouds.1 mph97%29.87 "Hg2 mi
9:00 PM58 °FLight freezing rain. Low clouds.2 mph97%29.88 "Hg2 mi
8:00 PM58 °FLight rain. Low clouds.2 mph97%29.87 "Hg2 mi
7:00 PM59 °FRain. Low clouds.1 mph98%29.86 "Hg2 mi
6:00 PM59 °FLight rain. Low clouds.2 mph96%29.86 "Hg3 mi
5:00 PM60 °FLight rain. Low clouds.5 mph96%29.86 "Hg3 mi
4:00 PM63 °FLight rain. Overcast.2 mph90%29.86 "Hg4 mi
3:00 PM65 °FLight rain. Overcast.2 mph74%29.86 "Hg11 mi
Weather by CustomWeather, © 2015

See weather overviewHow to use our weather pages